Location: Pamplona-Iru�ea
(42.8170°N, 1.6330°W)
Time: 12:31:32
(UTC+02:00)

ISS - Visible Passes

Search period start: 24 April 2018 00:00
Search period end: 04 May 2018 00:00
Orbit: 403 x 406 km, 51.6° (Epoch: 24 April)

Date Brightness Start Highest point End Pass type
(mag) Time Alt. Az. Time Alt. Az. Time Alt. Az.
30 Apr -0.8 06:11:36 10° SE 06:11:45 10° SE 06:11:54 10° SE visible
02 May -1.9 06:00:35 10° S 06:03:15 23° SE 06:05:55 10° E visible
03 May -1.3 05:10:07 11° SSE 05:11:06 13° SE 05:12:37 10° ESE visible
